Forside
METAR-TAF:

METAR-TAF

Lufthavne :

Pontiac Municipal Airport

Pontiac, Illinois, USA

Breddekreds: 40-55-25N, længdekreds: 088-37-31W, højde: 201 m

Aktuelle vejr

Denne rapport blev lavet for 28 minutter siden, kl. 23:15 UTC
Vind 4 kt fra øst
Temperatur -3°C
Fugtighed 86%
Tryk 1031 hPa
Sigt: 16.1 km
skyfri

METAR: KPNT 142315Z AUTO 08004KT 10SM CLR M03/M05 A3044 RMK AO2 T10261049

Tid: 17:43 (23:43 UTC)


TAF: fraværende

Vejrobservationer og prognoser fra mere end 4000 lufthavne (METAR og TAF).

De gule og røde prikker repræsenterer de meteorologiske stationer.

Flyt musen over at se navnet på stationen.

Så klik over at se vejr observationer og prognoser.

At skifte det kort: Klik på de grønne knapper med et sort kors for at zoome ind; på den grønne knap med en bindestreg for at zoome ud; eller på de grønne pile for tilstødende kort.


METAR-TAF: